FW1304 Weather Reports


Display with metric or nautical units.
time (UTC)temp
F
wind
direction
speed
MPH
gust
MPH
rain 1hr
in
rain 24hr
in
rain mn
in
humidity
%
barometer
mb
20260831164316 79 287 0.0 0.0 0.00 0.00 0.00 78 1009.3
20260831163819 79 21 0.0 0.0 0.00 0.00 0.00 78 1009.4
20260831163329 79 331 0.0 0.0 0.00 0.00 0.00 79 1009.4
20260831162843 78 26 0.0 0.0 0.00 0.00 0.00 80 1009.3
20260831162342 78 38 0.0 0.0 0.00 0.00 0.00 79 1009.3
20260831161844 78 311 0.0 0.0 0.00 0.00 0.00 80 1009.2
20260831161334 78 9 0.0 0.0 0.00 0.00 0.00 82 1009.2
20260831160837 77 295 0.0 1.0 0.00 0.00 0.00 82 1009.1
20260831160404 77 313 0.0 1.0 0.00 0.00 0.00 83 1009.1
20260831155827 77 11 0.0 0.0 0.00 0.00 0.00 84 1009.0
20260831155330 77 323 0.0 0.0 0.00 0.00 0.00 83 1008.9
20260831154844 77 328 0.0 0.0 0.00 0.00 0.00 84 1008.9
20260831154334 76 336 0.0 0.0 0.00 0.00 0.00 85 1008.9
20260831153837 76 284 0.0 0.0 0.00 0.00 0.00 85 1008.8
20260831153340 76 308 0.0 0.0 0.00 0.00 0.00 86 1008.9
20260831152826 76 315 0.0 0.0 0.00 0.00 0.00 86 1008.9
20260831152325 76 299 0.0 0.0 0.00 0.00 0.00 86 1008.7
20260831151827 76 26 0.0 0.0 0.00 0.00 0.00 86 1008.7
20260831151329 76 292 0.0 0.0 0.00 0.00 0.00 87 1008.7
20260831150833 77 22 0.0 0.0 0.00 0.00 0.00 87 1008.6
20260831150334 76 355 0.0 0.0 0.00 0.00 0.00 87 1008.4
20260831145819 76 5 0.0 0.0 0.00 0.00 0.00 87 1008.3
20260831145322 76 5 0.0 0.0 0.00 0.00 0.00 88 1008.2
20260831144836 76 329 0.0 0.0 0.00 0.00 0.00 88 1008.1
20260831144318 76 323 0.0 1.0 0.00 0.00 0.00 88 1007.9
20260831114847 71 195 0.0 0.0 0.00 0.00 0.00 88 1005.5
20260831114320 71 195 0.0 0.0 0.00 0.00 0.00 87 1005.6
20260831113835 71 195 0.0 0.0 0.00 0.00 0.00 87 1005.7
20260831113329 71 195 0.0 0.0 0.00 0.00 0.00 87 1005.7
20260831112824 71 195 0.0 0.0 0.00 0.00 0.00 87 1005.7
20260831112340 70 195 0.0 0.0 0.00 0.00 0.00 88 1005.7
20260831111827 70 194 0.0 0.0 0.00 0.00 0.00 88 1005.5
20260831111337 71 194 0.0 0.0 0.00 0.00 0.00 88 1005.7
20260831110824 71 194 0.0 0.0 0.00 0.00 0.00 88 1005.6
20260831110340 71 194 0.0 0.0 0.00 0.00 0.00 88 1005.5
20260831105842 71 194 0.0 0.0 0.00 0.00 0.00 88 1005.5
20260831105332 71 194 0.0 0.0 0.00 0.00 0.00 88 1005.5
20260831104847 71 194 0.0 0.0 0.00 0.00 0.00 88 1005.5
20260831104326 71 194 0.0 0.0 0.00 0.00 0.00 88 1005.4
20260831103902 71 194 0.0 0.0 0.00 0.00 0.00 88 1005.5
20260831103327 71 194 0.0 0.0 0.00 0.00 0.00 88 1005.5
20260831102818 72 194 0.0 0.0 0.00 0.00 0.00 88 1005.5
20260831102402 72 194 0.0 0.0 0.00 0.00 0.00 88 1005.6
20260831101828 72 194 0.0 0.0 0.00 0.00 0.00 88 1005.5
20260831101323 72 194 0.0 0.0 0.00 0.00 0.00 88 1005.3
20260831100820 72 194 0.0 0.0 0.00 0.00 0.00 88 1005.3
20260831100356 72 194 0.0 0.0 0.00 0.00 0.00 88 1005.2
20260831095836 72 194 0.0 0.0 0.00 0.00 0.00 88 1005.2
20260831095321 72 194 0.0 0.0 0.00 0.00 0.00 88 1005.0
20260831094818 72 194 0.0 0.0 0.00 0.00 0.00 88 1005.2
20260831094320 72 215 0.0 0.0 0.00 0.00 0.00 88 1005.0
20260831093834 72 215 0.0 0.0 0.00 0.00 0.00 88 1004.9
20260831093321 72 215 0.0 0.0 0.00 0.00 0.00 88 1005.0
20260831092823 72 215 0.0 0.0 0.00 0.00 0.00 88 1005.1
20260831092317 72 215 0.0 0.0 0.00 0.00 0.00 88 1004.9
20260831091851 72 215 0.0 0.0 0.00 0.00 0.00 88 1004.8
20260831091332 72 215 0.0 0.0 0.00 0.00 0.00 88 1004.9
20260831090841 73 215 0.0 0.0 0.00 0.00 0.00 88 1005.2
20260831090314 73 215 0.0 0.0 0.00 0.00 0.00 88 1005.3
20260831085815 73 215 0.0 0.0 0.00 0.00 0.00 88 1005.3
20260831085329 73 216 0.0 0.0 0.00 0.00 0.00 88 1005.2
20260831084815 73 216 0.0 0.0 0.00 0.00 0.00 88 1005.2
20260831084317 73 216 0.0 0.0 0.00 0.00 0.00 88 1005.0
20260831083830 73 216 0.0 0.0 0.00 0.00 0.00 88 1005.0
20260831083316 73 216 0.0 0.0 0.00 0.00 0.00 88 1004.9
20260831082843 73 216 0.0 0.0 0.00 0.00 0.00 88 1004.9
20260831082327 73 216 0.0 0.0 0.00 0.00 0.00 88 1004.9
20260831081823 73 216 0.0 0.0 0.00 0.00 0.00 88 1004.8
20260831081325 73 216 0.0 0.0 0.00 0.00 0.00 88 1004.8
20260831080842 73 216 0.0 0.0 0.00 0.00 0.00 88 1004.7
20260831080357 73 216 0.0 0.0 0.00 0.00 0.00 88 1004.8
20260831075838 74 216 0.0 0.0 0.00 0.00 0.00 88 1004.9
20260831075324 74 216 0.0 0.0 0.00 0.00 0.00 87 1004.8
20260831074838 74 218 0.0 0.0 0.00 0.00 0.00 87 1004.8
20260831074321 74 218 0.0 0.0 0.00 0.00 0.00 87 1004.9
20260831073829 74 218 0.0 0.0 0.00 0.00 0.00 87 1004.9
20260831073324 74 218 0.0 0.0 0.00 0.00 0.00 88 1004.8
20260831072825 74 197 0.0 0.0 0.00 0.00 0.00 87 1004.8
20260831072341 74 194 0.0 0.0 0.00 0.00 0.00 87 1004.9
20260831071827 74 193 0.0 0.0 0.00 0.00 0.00 87 1004.9
20260831071320 74 182 0.0 0.0 0.00 0.00 0.00 87 1004.9
20260831070814 74 182 0.0 0.0 0.00 0.00 0.00 87 1004.9
20260831070326 74 175 0.0 0.0 0.00 0.00 0.00 87 1005.0
20260831065828 74 166 0.0 0.0 0.00 0.00 0.00 87 1005.0
20260831065314 74 181 0.0 0.0 0.00 0.00 0.00 87 1005.1
20260831064850 74 188 0.0 0.0 0.00 0.00 0.00 87 1005.1
20260831064330 74 195 0.0 0.0 0.00 0.00 0.00 87 1005.1
20260831063824 74 164 0.0 0.0 0.00 0.00 0.00 87 1005.1
20260831063330 75 191 0.0 0.0 0.00 0.00 0.00 87 1005.1
20260831062901 75 173 0.0 0.0 0.00 0.00 0.00 87 1005.3
20260831062346 75 202 0.0 0.0 0.00 0.00 0.00 87 1005.4
20260831061323 75 128 0.0 0.0 0.00 0.00 0.00 87 1005.5
20260831060836 75 198 0.0 0.0 0.00 0.00 0.00 87 1005.7
20260831060323 75 180 0.0 0.0 0.00 0.00 0.00 87 1005.5
20260831055825 75 173 0.0 0.0 0.00 0.00 0.00 86 1005.4
20260831055321 75 182 0.0 0.0 0.00 0.00 0.00 86 1005.5
20260831054826 75 191 0.0 0.0 0.00 0.00 0.00 86 1005.4
20260831054316 75 187 0.0 0.0 0.00 0.00 0.00 86 1005.3
20260831053830 75 187 0.0 0.0 0.00 0.00 0.00 86 1005.4
20260831053323 75 146 0.0 0.0 0.00 0.00 0.00 86 1005.5
20260831052826 75 142 0.0 0.0 0.00 0.00 0.00 85 1005.7
20260831052340 75 193 0.0 0.0 0.00 0.00 0.00 85 1005.7
20260831051824 75 206 0.0 0.0 0.00 0.00 0.00 85 1005.8
20260831051347 75 182 0.0 0.0 0.00 0.00 0.00 85 1005.8
20260831050832 76 146 0.0 0.0 0.00 0.00 0.00 85 1005.8
20260831050328 76 213 0.0 0.0 0.00 0.00 0.00 84 1006.0
20260831045823 76 190 0.0 0.0 0.00 0.00 0.00 84 1006.1
20260831045339 76 151 0.0 0.0 0.00 0.00 0.00 84 1006.2
20260831044826 76 195 0.0 0.0 0.00 0.00 0.00 84 1006.3
20260831044326 76 196 0.0 0.0 0.00 0.00 0.00 83 1006.4
20260831043821 76 190 0.0 0.0 0.00 0.00 0.00 83 1006.4
20260831043337 76 211 0.0 0.0 0.00 0.00 0.00 83 1006.4
20260831042834 76 215 0.0 0.0 0.00 0.00 0.00 83 1006.5
20260831042322 76 202 0.0 0.0 0.00 0.00 0.00 83 1006.6
20260831041817 77 205 0.0 0.0 0.00 0.00 0.00 83 1006.6
20260831041340 77 198 0.0 0.0 0.00 0.00 0.00 82 1006.5
20260831040835 77 192 0.0 0.0 0.00 0.00 0.00 82 1006.5
20260831040322 77 235 0.0 0.0 0.00 0.00 0.00 82 1006.4
20260831035833 77 205 0.0 0.0 0.00 0.00 0.00 82 1006.4
20260831035319 77 201 0.0 0.0 0.00 0.00 0.00 82 1006.4
20260831034832 77 196 0.0 0.0 0.00 0.00 0.00 81 1006.4
20260831034334 77 150 0.0 0.0 0.00 0.00 0.00 81 1006.4
20260831033821 77 200 0.0 0.0 0.00 0.00 0.00 81 1006.4
20260831033318 77 220 0.0 0.0 0.00 0.00 0.00 81 1006.4
20260831032820 78 213 0.0 0.0 0.00 0.00 0.00 81 1006.4
20260831032328 78 202 0.0 1.0 0.00 0.00 0.00 81 1006.3
20260831031846 78 202 0.0 1.0 0.00 0.00 0.00 80 1006.3
20260831031320 78 192 0.0 1.0 0.00 0.00 0.00 80 1006.3
20260831030835 78 229 0.0 1.0 0.00 0.00 0.00 80 1006.2
20260831030326 78 252 0.0 0.0 0.00 0.00 0.00 80 1006.2
20260831025826 77 163 0.0 0.0 0.00 0.00 0.00 80 1006.2
20260831025323 77 202 0.0 0.0 0.00 0.00 0.00 81 1006.1
20260831024829 77 196 0.0 1.0 0.00 0.00 0.00 81 1006.0
20260831024337 77 203 0.0 0.0 0.00 0.00 0.00 82 1006.0
20260831023824 77 190 0.0 0.0 0.00 0.00 0.00 84 1005.9
20260831023339 77 213 0.0 0.0 0.00 0.00 0.00 85 1006.0
20260831022821 77 228 0.0 0.0 0.00 0.00 0.00 85 1006.1
20260831022328 77 219 0.0 0.0 0.00 0.00 0.00 85 1006.1
20260831021824 77 118 0.0 0.0 0.00 0.00 0.00 85 1006.1
20260831021326 77 118 0.0 0.0 0.00 0.00 0.00 85 1006.1
20260831020842 78 117 0.0 0.0 0.00 0.00 0.00 84 1006.0
20260831020328 78 117 0.0 0.0 0.00 0.00 0.00 84 1005.9
20260831015829 78 115 327.0 327.0 0.00 0.00 0.00 84 1005.4
20260831015324 78 105 0.0 0.0 0.00 0.00 0.00 83 1005.9
20260831014831 78 144 0.0 0.0 0.00 0.00 0.00 83 1005.9
20260831014359 78 88 0.0 0.0 0.00 0.00 0.00 83 1005.9
20260831013826 79 126 0.0 0.0 0.00 0.00 0.00 83 1005.9
20260831013341 79 127 0.0 0.0 0.00 0.00 0.00 82 1005.8
20260831012823 79 101 0.0 0.0 0.00 0.00 0.00 82 1005.8
20260831012339 79 107 0.0 0.0 0.00 0.00 0.00 82 1005.8
20260831011826 79 110 0.0 0.0 0.00 0.00 0.00 81 1005.8
20260831011326 79 105 0.0 0.0 0.00 0.00 0.00 81 1005.8
20260831010843 79 92 0.0 0.0 0.00 0.00 0.00 81 1005.7
20260831010327 80 88 0.0 0.0 0.00 0.00 0.00 80 1005.6
20260831005822 80 119 0.0 0.0 0.00 0.00 0.00 80 1005.6
20260831005337 80 129 0.0 0.0 0.00 0.00 0.00 80 1005.7
20260831004832 80 109 0.0 0.0 0.00 0.00 0.00 79 1005.7
20260831004314 80 113 0.0 1.0 0.00 0.00 0.00 79 1005.5
20260831003822 81 98 0.0 1.0 0.00 0.00 0.00 79 1005.6
20260831003337 81 113 0.0 2.0 0.00 0.00 0.00 78 1005.6
20260831002817 81 109 0.0 1.0 0.00 0.00 0.00 78 1005.6
20260831002333 81 111 0.0 1.0 0.00 0.00 0.00 78 1005.7
20260831001845 81 88 0.0 1.0 0.00 0.00 0.00 78 1005.7
20260831001326 81 126 0.0 0.0 0.00 0.00 0.00 78 1005.7
20260831000843 82 116 0.0 1.0 0.00 0.00 0.00 77 1005.6
20260831000325 82 119 0.0 1.0 0.00 0.00 0.00 77 1005.7
20260830235826 82 113 0.0 1.0 0.00 0.00 0.00 77 1005.6
20260830235341 82 141 0.0 1.0 0.00 0.00 0.00 77 1005.6
20260830234827 82 78 0.0 2.0 0.00 0.00 0.00 76 1005.5
20260830234328 82 78 0.0 2.0 0.00 0.00 0.00 76 1005.5
20260830233824 82 104 0.0 2.0 0.00 0.00 0.00 75 1005.5
20260830233329 83 123 0.0 2.0 0.00 0.00 0.00 76 1005.5
20260830232859 83 61 0.0 1.0 0.00 0.00 0.00 75 1005.7
20260830232324 83 117 0.0 2.0 0.00 0.00 0.00 75 1005.8
20260830231819 83 101 0.0 2.0 0.00 0.00 0.00 75 1005.6
20260830231323 83 151 0.0 2.0 0.00 0.00 0.00 75 1005.7
20260830230829 83 129 0.0 2.0 0.00 0.00 0.00 75 1005.6
20260830230323 83 138 0.0 1.0 0.00 0.00 0.00 75 1005.6
20260830225826 83 84 0.0 4.0 0.00 0.00 0.00 74 1005.8
20260830225343 83 113 0.0 4.0 0.00 0.00 0.00 75 1005.7
20260830224845 83 140 0.0 1.0 0.00 0.00 0.00 75 1005.5
20260830224325 83 163 0.0 2.0 0.00 0.00 0.00 75 1005.5
20260830223831 83 93 0.0 2.0 0.00 0.00 0.00 75 1005.5
20260830223325 83 155 0.0 0.0 0.00 0.00 0.00 76 1005.6
20260830222826 83 105 0.0 2.0 0.00 0.00 0.00 76 1005.7
20260830222341 83 102 0.0 2.0 0.00 0.00 0.00 75 1005.6
20260830221855 83 144 0.0 1.0 0.00 0.00 0.00 75 1005.7
20260830221335 83 114 0.0 1.0 0.00 0.00 0.00 75 1005.7
20260830220821 83 93 0.0 1.0 0.00 0.00 0.00 75 1005.8
20260830220337 83 132 0.0 2.0 0.00 0.00 0.00 75 1005.9
20260830215816 83 98 0.0 2.0 0.00 0.00 0.00 76 1005.9
20260830215351 83 146 0.0 4.0 0.00 0.00 0.00 75 1005.9
20260830214841 83 91 0.0 4.0 0.00 0.00 0.00 74 1005.9
20260830214319 83 113 327.0 327.0 0.00 0.00 0.00 75 1005.6
20260830213837 83 108 0.0 2.0 0.00 0.00 0.00 74 1006.1
20260830213325 83 108 327.0 327.0 0.00 0.00 0.00 74 1005.7
20260830212858 83 134 0.0 2.0 0.00 0.00 0.00 75 1006.1
20260830212322 83 130 0.0 2.0 0.00 0.00 0.00 76 1006.1
20260830211817 82 66 0.0 2.0 0.00 0.00 0.00 76 1006.2
20260830211319 82 117 0.0 4.0 0.00 0.00 0.00 77 1006.2
20260830210833 82 173 1.0 4.0 0.00 0.00 0.00 77 1006.3
20260830210320 82 117 0.0 1.0 0.00 0.00 0.00 76 1006.5
20260830205824 82 107 0.0 2.0 0.00 0.00 0.00 75 1006.5
20260830205339 82 121 0.0 2.0 0.00 0.00 0.00 76 1006.5
20260830204826 82 72 0.0 1.0 0.00 0.00 0.00 75 1006.5
20260830204328 82 100 0.0 1.0 0.00 0.00 0.00 75 1006.5
20260830203823 82 99 0.0 1.0 0.00 0.00 0.00 77 1006.4
20260830203327 81 107 0.0 1.0 0.00 0.00 0.00 77 1006.4
20260830202845 81 130 0.0 4.0 0.00 0.00 0.00 78 1006.4
20260830202339 80 116 0.0 5.0 0.00 0.00 0.00 77 1006.4
20260830201821 80 67 0.0 5.0 0.00 0.00 0.00 78 1006.3
20260830201315 80 98 0.0 4.0 0.00 0.00 0.00 78 1006.2
20260830200850 80 53 0.0 4.0 0.00 0.00 0.00 79 1006.2
20260830200325 80 119 0.0 4.0 0.00 0.00 0.00 79 1006.2
20260830195839 79 124 0.0 4.0 0.00 0.00 0.00 79 1006.3
20260830195316 79 126 0.0 4.0 0.00 0.00 0.00 80 1006.4
20260830194832 79 89 0.0 5.0 0.00 0.00 0.00 79 1006.2
20260830194334 79 46 0.0 4.0 0.00 0.00 0.00 80 1006.4
20260830193821 79 105 0.0 4.0 0.00 0.00 0.00 79 1006.8
20260830193337 79 130 0.0 2.0 0.00 0.00 0.00 80 1006.9
20260830192837 79 90 0.0 2.0 0.00 0.00 0.00 81 1007.1
20260830192324 78 98 0.0 2.0 0.00 0.00 0.00 81 1007.1
20260830191840 78 105 0.0 6.0 0.00 0.00 0.00 81 1007.0
20260830191322 78 94 0.0 2.0 0.00 0.00 0.00 82 1007.1
20260830190834 78 114 0.0 1.0 0.00 0.00 0.00 82 1007.3
20260830190322 78 95 0.0 2.0 0.00 0.00 0.00 83 1007.3
20260830185823 77 48 0.0 2.0 0.00 0.00 0.00 83 1007.4
20260830185320 77 99 0.0 0.0 0.00 0.00 0.00 84 1007.6
20260830184820 76 65 0.0 0.0 0.00 0.00 0.00 84 1007.6
20260830184323 76 25 0.0 0.0 0.00 0.00 0.00 84 1007.6
20260830183819 76 106 0.0 0.0 0.00 0.00 0.00 84 1007.8
20260830183334 76 134 0.0 0.0 0.00 0.00 0.00 85 1007.9
20260830182833 76 105 0.0 0.0 0.00 0.00 0.00 85 1007.8
20260830182318 75 117 0.0 0.0 0.00 0.00 0.00 85 1007.9
20260830181834 75 83 0.0 1.0 0.00 0.00 0.00 85 1007.8
20260830181336 75 126 0.0 1.0 0.00 0.00 0.00 85 1007.8
20260830180851 75 69 0.0 0.0 0.00 0.00 0.00 86 1007.7
20260830180316 75 90 0.0 1.0 0.00 0.00 0.00 86 1007.8
20260830175836 74 123 0.0 0.0 0.00 0.00 0.00 86 1007.8
20260830175341 74 61 0.0 0.0 0.00 0.00 0.00 86 1007.9
20260830174826 74 111 0.0 0.0 0.00 0.00 0.00 86 1007.8
20260830174322 74 142 0.0 0.0 0.00 0.00 0.00 86 1007.8
20260830173837 74 141 0.0 1.0 0.00 0.00 0.00 86 1007.9
20260830173323 74 113 0.0 1.0 0.00 0.00 0.00 86 1008.0
20260830172825 74 98 0.0 0.0 0.00 0.00 0.00 86 1008.0
20260830172320 74 111 0.0 1.0 0.00 0.00 0.00 86 1008.0
20260830171835 74 69 0.0 1.0 0.00 0.00 0.00 86 1007.9
20260830171337 74 108 0.0 0.0 0.00 0.00 0.00 86 1007.9
20260830170826 73 89 0.0 0.0 0.00 0.00 0.00 86 1007.9
20260830170313 73 61 0.0 2.0 0.00 0.00 0.00 86 1007.9
20260830165815 73 102 0.0 2.0 0.00 0.00 0.00 86 1008.0
20260830165401 73 38 0.0 2.0 0.00 0.00 0.00 86 1007.7
20260830164846 73 71 0.0 1.0 0.00 0.00 0.00 86 1007.6